METEOR 2-17 DEB

Satellite information

Favourite Embed

Satellite Type and Status

DEBRISIN ORBIT

Key statistics

Satellite METEOR 2-17 DEB at a glance.

Uptime

13673

Days in orbit

Revolutions

≈ 14.0

Per day

Orbit

LEO

Low Earth Orbit

Inclination

82.5

Latest

Satellite identification and parameters

Extended collection of information and parameters for METEOR 2-17 DEB.

Object identification

Identified? True

Debris? True

Object name: METEOR 2-17 DEB

International designator: 1988-005Q

Object number (NORAD): 29301

Object ID (CCSDS): 29301

Country: COMMONWEALTH OF INDEPENDENT STATES (CIS)

Current information (Y/N): Y

RCS size: SMALL

Orbital parameters

Period: 102.873 minutes

Inclination: 82.5327 deg

SMA: 7272.679 km

Apoapsis: 907.354 km

Periapsis: 881.734 km

RAAN: 182.6728 deg

Eccentricy: 0.0017614

Argument of periapsis: 237.5017 deg

Mean anomaly: 181.2066 deg

Mean motion: 13.99784376 rev/day

Mean motion (dot): 0.00001154 rev/day2

B* drag term: 0.0007767 1/REarth

Two-line elements (TLE)

Creation date: July 6, 2025, 6:05 p.m.

Reference frame: TEME

Reference center: EARTH

Epoch: July 6, 2025, 6:41 a.m. UTC

TLE line 0: 0 METEOR 2-17 DEB

TLE line 1: 1 29301U 88005Q 25187.27885740 .00001154 00000-0 77670-3 0 9991

TLE line 2: 2 29301 82.5327 182.6728 0017614 237.5017 181.2066 13.99784376584460

Live tracking on map

Real-time ground track for satellite METEOR 2-17 DEB.

In-orbit conjunctions

A list of the most updated potential collisions computed for object METEOR 2-17 DEB.

Target Orbit TCA Probability of collision Miss distance Type
DELTA 1 DEB SSO 2025-02-11 13:08:50 0.0001595446 122.0 (m) DEBRIS

Associated space launch

Second generation soviet meteorological satellite

METEOR 2-17 DEB was lifted into orbit during the mission ‘Tsiklon-3 | Meteor-2 17’, on board a Tsiklon-3 space rocket.

The launch took place on Jan. 30, 1988, 10:59 a.m. from 32/1.

For more information about the launch, click the button.

Launch to space Tsiklon-3 | Meteor-2 17
Tsiklon-3 | Meteor-2 17

Agency: N/A

Status: Launch Successful

Launch date: Jan. 30, 1988, 10:59 a.m. UTC

Rocket: Tsiklon-3

Launch pad: 32/1

Location: Plesetsk Cosmodrome, Russian Federation

...

Latest news about this satellite

There are no fresh news available about this satellite. Check back as we update our databases every day.


Newsletter sign-up

Weekly statistics, charts and insights to help you stay on top of the space industry.